User: anonymous   Login
Location: Linz
(48.3300°N, 14.3000°E)
Time: 00:25:46
(UTC+02:00)
Language:

N. Korean satellite - Orbit

View from above orbital plane
View from above orbital plane
View from above satellite
View from above satellite

Ground track
Ground track

The orbit data is extracted from the following two-line orbital elements,

1 39026U 12072A   18200.92505244 +.00001100 +00000-0 +43600-4 0  9993
2 39026 097.2099 210.1778 0038317 204.5314 155.4104 15.26842212310596
Epoch (UTC): 19 July 2018 22:12:04
Eccentricity: 0.0038317
inclination: 97.2099°
perigee height: 459 km
apogee height: 511 km
right ascension of ascending node: 210.1778°
argument of perigee: 204.5314°
revolutions per day: 15.26842212
mean anomaly at epoch: 155.4104°
orbit number at epoch: 31059

The dashed part of the orbit path shows where the satellite is in the earth's shadow,  

DLR